Location: Mahannah Oil Field
(37.4664°N, 96.6003°W)
Time: 08:33:28
(UTC+00:00)

Courier 1B - Pass Details

Date: 24 January 2021
Orbit: 962 x 1209 km, 28.3° (Epoch: 02 March)

Event Time Altitude Azimuth Distance (km) Brightness Sun altitude
Rises 04:10:08 0° 212° (SSW) 3,801 - -52.9°
Reaches altitude 10° 04:14:05 10° 191° (S) 2,800 - -53.7°
Maximum altitude 04:17:55 16° 156° (SSE) 2,357 - -54.4°
Drops below altitude 10° 04:21:41 10° 121° (ESE) 2,727 - -55.1°
Sets 04:25:25 0° 100° (E) 3,651 - -55.7°
